Flag for U.S.A. Weather past 2 weeks in Springfield, Missouri, U.S.A.

Now
86 °F

Scattered clouds.


Feels Like: 92 °F
Forecast: 69 / 92 °F
Wind: 6 mph from North

Location: Springfield Regional Airport

Current Time: Jul 22, 2014 at 5:03:18 PM

Latest Report: Jul 22, 2014 at 11:52 AM


Visibility: 10 mi

Pressure: 30.07 "Hg

Humidity: 63%

Dew point: 72 °F

Location of SpringfieldLocation

Historic Weather in Springfield — Graph

°F

Springfield temperature yesterday

Maximum temperature yesterday: 88 °F (at 5:52 PM)
Minimum temperature yesterday: 65 °F (at 4:52 AM)
Average temperature yesterday: 77 °F

Past Weeks' High & Low Weather Summary

 TemperatureHumidityPressure
High91 °F (Jul 13, 1:52 PM)97% (Jul 8, 7:03 AM)30.12 "Hg (Jul 8, 7:03 AM)
Low56 °F (Jul 15, 6:52 AM)41% (Jul 9, 1:52 PM)29.78 "Hg (Jul 7, 9:52 PM)
Average74 °F70%30.02 "Hg
* Reported Jul 7 11:52 AM — Jul 22 11:52 AM, Springfield, Weather by CustomWeather, © 2014

Note: Actual official high and low records may vary slightly from our data, if they occured in-between our weather recording intervals... More about our weather records

Advertising

Springfield weather history for previous 24 hours

 ConditionsComfort  
Time TempWeatherWind HumidityBarometerVisibility
11:52 AM
Jul 22
86 °FScattered clouds.6 mph63%30.07 "Hg10 mi
10:52 AM84 °FSunny.8 mph67%30.06 "Hg10 mi
9:52 AM80 °FSunny.10 mph74%30.07 "Hg10 mi
8:52 AM76 °FSunny.10 mph77%30.09 "Hg10 mi
7:52 AM73 °FSunny.8 mph84%30.08 "Hg10 mi
6:52 AM70 °FClear.8 mph90%30.06 "Hg10 mi
5:52 AM70 °FClear.9 mph87%30.05 "Hg10 mi
4:52 AM70 °FClear.6 mph87%30.03 "Hg10 mi
3:52 AM71 °FClear.8 mph84%30.03 "Hg10 mi
2:52 AM72 °FClear.10 mph81%30.03 "Hg10 mi
1:52 AM73 °FClear.9 mph79%30.04 "Hg10 mi
12:52 AM74 °FClear.12 mph76%30.03 "Hg10 mi
11:52 PM
Jul 21
75 °FClear.12 mph74%30.03 "Hg10 mi
10:52 PM77 °FClear.10 mph69%30.02 "Hg10 mi
9:52 PM78 °FClear.9 mph69%30.01 "Hg10 mi
8:52 PM79 °FSunny.8 mph67%29.99 "Hg10 mi
7:52 PM84 °FSunny.3 mph57%29.98 "Hg10 mi
6:52 PM86 °FSunny.6 mph55%29.99 "Hg10 mi
5:52 PM88 °FSunny.8 mph50%30.00 "Hg10 mi
Weather by CustomWeather, © 2014

See weather overviewHow to use our weather pages